DESCENT

Last updated on Wed Jun 22 2022 00:02:05 GMT+0000 (Coordinated Universal Time)

1 46927U 98067RX 22167.78829181 .02162638 11925-4 89836-3 0 9997 2 46927 51.6205 288.7123 0013771 316.3870 43.6060 16.22123932 91872

Satellite not in orbit